Time,TemperatureF,DewpointF,PressureIn,WindDirection,WindDirectionDegrees,WindSpeedMPH,WindSpeedGustMPH,Humidity,HourlyPrecipIn,Conditions,Clouds,dailyrainin,SolarRadiationWatts/m^2,SoftwareType,DateUTC
2013-11-23 00:02:00,22.0,13.0,-100.00,NNW,328,10.0,18.0,69,0.00,,,0.02,0.000000,,2013-11-23 06:02:00,
2013-11-23 00:42:00,19.0,10.0,-100.00,NNW,333,7.0,21.0,67,0.00,,,0.02,0.000000,,2013-11-23 06:42:00,
2013-11-23 00:53:00,19.0,10.0,-100.00,NNW,333,7.0,21.0,67,0.00,,,0.02,0.000000,,2013-11-23 06:53:00,
2013-11-23 01:01:00,19.0,10.0,-100.00,NNW,333,7.0,21.0,67,0.00,,,0.02,0.000000,,2013-11-23 07:01:00,
2013-11-23 01:42:00,18.0,6.0,-100.00,NNW,343,11.0,23.0,59,0.00,,,0.01,0.000000,,2013-11-23 07:42:00,
2013-11-23 01:52:00,18.0,6.0,-100.00,NNW,343,11.0,23.0,59,0.00,,,0.01,0.000000,,2013-11-23 07:52:00,
2013-11-23 02:01:00,18.0,6.0,-100.00,NNW,343,11.0,23.0,59,0.00,,,0.01,0.000000,,2013-11-23 08:01:00,
2013-11-23 02:42:00,15.0,2.0,-100.00,NNW,335,10.0,22.0,56,0.00,,,0.01,0.000000,,2013-11-23 08:42:00,
2013-11-23 02:52:00,15.0,2.0,-100.00,NNW,335,10.0,22.0,56,0.00,,,0.01,0.000000,,2013-11-23 08:52:00,
2013-11-23 03:02:00,15.0,2.0,-100.00,NNW,335,10.0,22.0,56,0.00,,,0.01,0.000000,,2013-11-23 09:02:00,
2013-11-23 03:43:00,13.0,-1.0,-100.00,North,349,9.0,20.0,52,0.00,,,0.00,0.000000,,2013-11-23 09:43:00,
2013-11-23 03:54:00,13.0,-1.0,-100.00,North,349,9.0,20.0,52,0.00,,,0.00,0.000000,,2013-11-23 09:54:00,
2013-11-23 04:03:00,13.0,-1.0,-100.00,North,349,9.0,20.0,52,0.00,,,0.00,0.000000,,2013-11-23 10:03:00,
2013-11-23 04:42:00,10.0,-1.0,-100.00,NNW,340,6.0,20.0,60,0.00,,,-99.99,0.000000,,2013-11-23 10:42:00,
2013-11-23 04:52:00,10.0,-1.0,-100.00,NNW,340,6.0,20.0,60,0.00,,,-99.99,0.000000,,2013-11-23 10:52:00,
2013-11-23 05:02:00,10.0,-1.0,-100.00,NNW,340,6.0,20.0,60,0.00,,,-99.99,0.000000,,2013-11-23 11:02:00,
2013-11-23 05:43:00,9.0,0.0,-100.00,NNW,333,7.0,18.0,65,0.00,,,0.00,0.000000,,2013-11-23 11:43:00,
2013-11-23 05:52:00,9.0,0.0,-100.00,NNW,333,7.0,18.0,65,0.00,,,0.00,0.000000,,2013-11-23 11:52:00,
2013-11-23 06:02:00,9.0,0.0,-100.00,NNW,333,7.0,18.0,65,0.00,,,0.00,0.000000,,2013-11-23 12:02:00,
2013-11-23 06:42:00,8.0,0.0,-100.00,NNW,336,6.0,14.0,68,0.00,,,0.00,0.000000,,2013-11-23 12:42:00,
2013-11-23 06:52:00,8.0,0.0,-100.00,NNW,336,6.0,14.0,68,0.00,,,0.00,0.000000,,2013-11-23 12:52:00,
2013-11-23 07:01:00,8.0,0.0,-100.00,NNW,336,6.0,14.0,68,0.00,,,0.00,0.000000,,2013-11-23 13:01:00,
2013-11-23 07:42:00,8.0,0.0,-100.00,NNW,332,7.0,15.0,68,0.00,,,0.00,0.000000,,2013-11-23 13:42:00,
2013-11-23 07:52:00,8.0,0.0,-100.00,NNW,332,7.0,15.0,68,0.00,,,0.00,0.000000,,2013-11-23 13:52:00,
2013-11-23 08:02:00,8.0,0.0,-100.00,NNW,332,7.0,15.0,68,0.00,,,0.00,0.000000,,2013-11-23 14:02:00,
2013-11-23 08:42:00,10.0,1.0,-100.00,NNW,327,6.0,13.0,65,0.00,,,0.00,20.000000,,2013-11-23 14:42:00,
2013-11-23 08:52:00,10.0,1.0,-100.00,NNW,327,6.0,13.0,65,0.00,,,0.00,20.000000,,2013-11-23 14:52:00,
2013-11-23 09:02:00,10.0,1.0,-100.00,NNW,327,6.0,13.0,65,0.00,,,0.00,20.000000,,2013-11-23 15:02:00,
2013-11-23 09:43:00,11.0,1.0,-100.00,NNW,328,7.0,14.0,62,0.00,,,0.00,78.000000,,2013-11-23 15:43:00,
2013-11-23 09:54:00,11.0,1.0,-100.00,NNW,328,7.0,14.0,62,0.00,,,0.00,78.000000,,2013-11-23 15:54:00,
2013-11-23 10:04:00,11.0,1.0,-100.00,NNW,328,7.0,14.0,62,0.00,,,0.00,78.000000,,2013-11-23 16:04:00,
2013-11-23 10:43:00,14.0,2.0,-100.00,NW,325,5.0,17.0,57,0.00,,,0.00,187.000000,,2013-11-23 16:43:00,
2013-11-23 10:53:00,14.0,2.0,-100.00,NW,325,5.0,17.0,57,0.00,,,0.00,187.000000,,2013-11-23 16:53:00,
2013-11-23 11:03:00,14.0,2.0,-100.00,NW,325,5.0,17.0,57,0.00,,,0.00,187.000000,,2013-11-23 17:03:00,
2013-11-23 11:42:00,15.0,0.0,-100.00,NNW,336,8.0,17.0,50,0.00,,,0.00,309.000000,,2013-11-23 17:42:00,
2013-11-23 11:52:00,15.0,0.0,-100.00,NNW,336,8.0,17.0,50,0.00,,,0.00,309.000000,,2013-11-23 17:52:00,
2013-11-23 12:02:00,15.0,0.0,-100.00,NNW,336,8.0,17.0,50,0.00,,,0.00,309.000000,,2013-11-23 18:02:00,
2013-11-23 12:42:00,14.0,-1.0,-100.00,NW,325,8.0,17.0,51,0.00,,,0.00,326.000000,,2013-11-23 18:42:00,
2013-11-23 12:52:00,14.0,-1.0,-100.00,NW,325,8.0,17.0,51,0.00,,,0.00,326.000000,,2013-11-23 18:52:00,
2013-11-23 13:01:00,14.0,-1.0,-100.00,NW,325,8.0,17.0,51,0.00,,,0.00,326.000000,,2013-11-23 19:01:00,
2013-11-23 13:42:00,16.0,-2.0,-100.00,NNW,330,9.0,16.0,44,0.00,,,0.00,392.000000,,2013-11-23 19:42:00,
2013-11-23 13:52:00,16.0,-2.0,-100.00,NNW,330,9.0,16.0,44,0.00,,,0.00,392.000000,,2013-11-23 19:52:00,
2013-11-23 14:02:00,16.0,-2.0,-100.00,NNW,330,9.0,16.0,44,0.00,,,0.00,392.000000,,2013-11-23 20:02:00,
2013-11-23 14:42:00,17.0,-1.0,-100.00,NW,312,6.0,16.0,45,0.00,,,0.00,376.000000,,2013-11-23 20:42:00,
2013-11-23 14:53:00,17.0,-1.0,-100.00,NW,312,6.0,16.0,45,0.00,,,0.00,376.000000,,2013-11-23 20:53:00,
2013-11-23 15:02:00,17.0,-1.0,-100.00,NW,312,6.0,16.0,45,0.00,,,0.00,376.000000,,2013-11-23 21:02:00,
2013-11-23 15:43:00,17.0,-2.0,-100.00,NW,312,5.0,13.0,43,0.00,,,0.00,272.000000,,2013-11-23 21:43:00,
2013-11-23 15:53:00,17.0,-2.0,-100.00,NW,312,5.0,13.0,43,0.00,,,0.00,272.000000,,2013-11-23 21:53:00,
2013-11-23 16:03:00,17.0,-2.0,-100.00,NW,312,5.0,13.0,43,0.00,,,0.00,272.000000,,2013-11-23 22:03:00,
2013-11-23 16:43:00,15.0,-2.0,-100.00,NNW,328,5.0,14.0,45,0.00,,,0.00,128.000000,,2013-11-23 22:43:00,
2013-11-23 16:53:00,15.0,-2.0,-100.00,NNW,328,5.0,14.0,45,0.00,,,0.00,128.000000,,2013-11-23 22:53:00,
2013-11-23 17:02:00,15.0,-2.0,-100.00,NNW,328,5.0,14.0,45,0.00,,,0.00,128.000000,,2013-11-23 23:02:00,
2013-11-23 17:42:00,12.0,-1.0,-100.00,WNW,292,0.0,7.0,54,0.00,,,0.00,10.000000,,2013-11-23 23:42:00,
2013-11-23 17:53:00,12.0,-1.0,-100.00,WNW,292,0.0,7.0,54,0.00,,,0.00,10.000000,,2013-11-23 23:53:00,
2013-11-23 18:02:00,12.0,-1.0,-100.00,WNW,292,0.0,7.0,54,0.00,,,0.00,10.000000,,2013-11-24 00:02:00,
2013-11-23 18:42:00,10.0,-2.0,-100.00,NW,311,1.0,4.0,58,0.00,,,0.00,0.000000,,2013-11-24 00:42:00,
2013-11-23 18:52:00,10.0,-2.0,-100.00,NW,311,1.0,4.0,58,0.00,,,0.00,0.000000,,2013-11-24 00:52:00,
2013-11-23 19:01:00,10.0,-2.0,-100.00,NW,311,1.0,4.0,58,0.00,,,0.00,0.000000,,2013-11-24 01:01:00,
2013-11-23 19:42:00,8.0,-1.0,-100.00,NNW,346,0.0,3.0,66,0.00,,,0.00,0.000000,,2013-11-24 01:42:00,
2013-11-23 19:53:00,8.0,-1.0,-100.00,NNW,346,0.0,3.0,66,0.00,,,0.00,0.000000,,2013-11-24 01:53:00,
2013-11-23 20:01:00,8.0,-1.0,-100.00,NNW,346,0.0,3.0,66,0.00,,,0.00,0.000000,,2013-11-24 02:01:00,
2013-11-23 20:42:00,8.0,0.0,-100.00,NNW,342,0.0,3.0,68,0.00,,,0.00,0.000000,,2013-11-24 02:42:00,
2013-11-23 20:52:00,8.0,0.0,-100.00,NNW,342,0.0,3.0,68,0.00,,,0.00,0.000000,,2013-11-24 02:52:00,
2013-11-23 21:02:00,8.0,0.0,-100.00,NNW,342,0.0,3.0,68,0.00,,,0.00,0.000000,,2013-11-24 03:02:00,
2013-11-23 21:43:00,8.0,0.0,-100.00,West,276,1.0,3.0,69,0.00,,,0.00,0.000000,,2013-11-24 03:43:00,
2013-11-23 21:53:00,8.0,0.0,-100.00,West,276,1.0,3.0,69,0.00,,,0.00,0.000000,,2013-11-24 03:53:00,
2013-11-23 22:02:00,-999.0,-99.9,-100.00,West,276,1.0,3.0,-999,0.00,,,0.00,0.000000,,2013-11-24 04:02:00,
2013-11-23 22:43:00,8.0,-1.0,-100.00,WNW,303,1.0,6.0,65,0.00,,,0.00,0.000000,,2013-11-24 04:43:00,
2013-11-23 22:53:00,8.0,-1.0,-100.00,WNW,303,1.0,6.0,65,0.00,,,0.00,0.000000,,2013-11-24 04:53:00,
2013-11-23 23:03:00,8.0,-1.0,-100.00,WNW,303,1.0,6.0,65,0.00,,,0.00,0.000000,,2013-11-24 05:03:00,
2013-11-23 23:43:00,5.0,-2.0,-100.00,SE,126,2.0,4.0,73,0.00,,,0.00,0.000000,,2013-11-24 05:43:00,
2013-11-23 23:53:00,5.0,-2.0,-100.00,SE,126,2.0,4.0,73,0.00,,,0.00,0.000000,,2013-11-24 05:53:00,